When you browse on this site, cookies collect data to enhance your experience and personalize the content and advertising you see.
Visit our Privacy Policy to learn more. By continuing to use the site, you agree to this use of cookies and data.
EN

Hourly Weather El Guna

Today, 13 August, Thursday

Time Temperature Precipitation Wind Pressure Humidity
00:00 +29°C° 0 mm 3 mps 728 mmHg 37%
01:00 +29°C° 0 mm 4 mps 728 mmHg 42%
02:00 +28°C° 0 mm 3 mps 727 mmHg 48%
03:00 +27°C° 0 mm 3 mps 727 mmHg 50%
04:00 +27°C° 0 mm 3 mps 727 mmHg 53%
05:00 +26°C° 0 mm 2 mps 727 mmHg 55%
06:00 +28°C° 0 mm 3 mps 728 mmHg 45%
07:00 +31°C° 0 mm 3 mps 728 mmHg 35%
08:00 +34°C° 0 mm 3 mps 729 mmHg 25%
09:00 +35°C° 0 mm 3 mps 728 mmHg 23%
10:00 +37°C° 0 mm 3 mps 728 mmHg 20%
11:00 +38°C° 0 mm 3 mps 728 mmHg 17%
12:00 +40°C° 0 mm 4 mps 728 mmHg 17%
13:00 +41°C° 0 mm 5 mps 727 mmHg 17%
14:00 +42°C° 0 mm 5 mps 727 mmHg 17%
15:00 +41°C° 0 mm 5 mps 727 mmHg 20%
16:00 +40°C° 0 mm 6 mps 726 mmHg 23%
17:00 +39°C° 0 mm 6 mps 726 mmHg 25%
18:00 +36°C° 0 mm 5 mps 726 mmHg 30%
19:00 +34°C° 0 mm 4 mps 726 mmHg 34%
20:00 +31°C° 0 mm 2 mps 726 mmHg 39%
21:00 +31°C° 0 mm 2 mps 726 mmHg 37%
22:00 +30°C° 0 mm 2 mps 726 mmHg 36%
23:00 +30°C° 0 mm 2 mps 727 mmHg 35%

Tomorrow, 14 August, Friday

Time Temperature Precipitation Wind Pressure Humidity
00:00 +30°C° 0 mm 2 mps 726 mmHg 37%
01:00 +29°C° 0 mm 2 mps 726 mmHg 39%
02:00 +29°C° 0 mm 2 mps 726 mmHg 41%
03:00 +28°C° 0 mm 2 mps 726 mmHg 43%
04:00 +27°C° 0 mm 2 mps 726 mmHg 45%
05:00 +26°C° 0 mm 2 mps 726 mmHg 48%
06:00 +29°C° 0 mm 2 mps 726 mmHg 41%
07:00 +31°C° 0 mm 2 mps 727 mmHg 35%
08:00 +34°C° 0 mm 3 mps 727 mmHg 29%
09:00 +36°C° 0 mm 3 mps 727 mmHg 26%
10:00 +37°C° 0 mm 3 mps 727 mmHg 24%
11:00 +40°C° 0 mm 4 mps 727 mmHg 21%
12:00 +41°C° 0 mm 4 mps 727 mmHg 20%
13:00 +42°C° 0 mm 5 mps 726 mmHg 19%
14:00 +42°C° 0 mm 5 mps 726 mmHg 19%
15:00 +42°C° 0 mm 5 mps 726 mmHg 20%
16:00 +41°C° 0 mm 6 mps 725 mmHg 21%
17:00 +40°C° 0 mm 6 mps 725 mmHg 22%
18:00 +37°C° 0 mm 5 mps 725 mmHg 24%
19:00 +35°C° 0 mm 4 mps 725 mmHg 27%
20:00 +33°C° 0 mm 3 mps 725 mmHg 29%
21:00 +33°C° 0 mm 3 mps 725 mmHg 28%
22:00 +31°C° 0 mm 3 mps 725 mmHg 28%
23:00 +31°C° 0 mm 2 mps 725 mmHg 27%

Day after tomorrow, 15 August, Saturday

Time Temperature Precipitation Wind Pressure Humidity
00:00 +30°C° 0 mm 2 mps 725 mmHg 28%
01:00 +30°C° 0 mm 2 mps 725 mmHg 29%
02:00 +29°C° 0 mm 2 mps 725 mmHg 31%
03:00 +28°C° 0 mm 2 mps 725 mmHg 32%
04:00 +28°C° 0 mm 1 mps 725 mmHg 33%
05:00 +27°C° 0 mm 1 mps 725 mmHg 35%
06:00 +29°C° 0 mm 2 mps 726 mmHg 30%
07:00 +32°C° 0 mm 2 mps 726 mmHg 26%
08:00 +35°C° 0 mm 3 mps 727 mmHg 21%
09:00 +37°C° 0 mm 3 mps 727 mmHg 20%
10:00 +38°C° 0 mm 4 mps 727 mmHg 19%
11:00 +40°C° 0 mm 4 mps 727 mmHg 18%
12:00 +41°C° 0 mm 4 mps 726 mmHg 17%
13:00 +42°C° 0 mm 5 mps 726 mmHg 16%
14:00 +42°C° 0 mm 5 mps 726 mmHg 16%
15:00 +42°C° 0 mm 5 mps 725 mmHg 16%
16:00 +41°C° 0 mm 6 mps 725 mmHg 17%
17:00 +40°C° 0 mm 7 mps 724 mmHg 18%
18:00 +37°C° 0 mm 5 mps 725 mmHg 21%
19:00 +35°C° 0 mm 4 mps 725 mmHg 24%
20:00 +33°C° 0 mm 3 mps 725 mmHg 27%
21:00 +31°C° 0 mm 2 mps 725 mmHg 26%
22:00 +31°C° 0 mm 2 mps 725 mmHg 25%
23:00 +31°C° 0 mm 2 mps 725 mmHg 24%

16 August, Sunday

Time Temperature Precipitation Wind Pressure Humidity
00:00 +30°C° 0 mm 2 mps 725 mmHg 27%
01:00 +30°C° 0 mm 2 mps 725 mmHg 30%
02:00 +29°C° 0 mm 2 mps 724 mmHg 33%
03:00 +29°C° 0 mm 2 mps 724 mmHg 34%
04:00 +28°C° 0 mm 1 mps 725 mmHg 36%
05:00 +27°C° 0 mm 1 mps 725 mmHg 38%
06:00 +29°C° 0 mm 1 mps 725 mmHg 33%
07:00 +32°C° 0 mm 2 mps 726 mmHg 28%
08:00 +36°C° 0 mm 2 mps 727 mmHg 23%
09:00 +37°C° 0 mm 2 mps 727 mmHg 20%
10:00 +39°C° 0 mm 3 mps 727 mmHg 18%
11:00 +40°C° 0 mm 3 mps 727 mmHg 16%
12:00 +42°C° 0 mm 4 mps 727 mmHg 16%
13:00 +43°C° 0 mm 4 mps 726 mmHg 16%
14:00 +43°C° 0 mm 5 mps 726 mmHg 15%
15:00 +42°C° 0 mm 5 mps 726 mmHg 17%
16:00 +41°C° 0 mm 4 mps 726 mmHg 18%
17:00 +40°C° 0 mm 4 mps 725 mmHg 20%
18:00 +37°C° 0 mm 3 mps 726 mmHg 23%
19:00 +35°C° 0 mm 3 mps 726 mmHg 26%
20:00 +32°C° 0 mm 2 mps 726 mmHg 30%
21:00 +32°C° 0 mm 2 mps 726 mmHg 27%
22:00 +31°C° 0 mm 2 mps 726 mmHg 25%
23:00 +31°C° 0 mm 2 mps 726 mmHg 23%

17 August, Monday

Time Temperature Precipitation Wind Pressure Humidity
00:00 +31°C° 0 mm 2 mps 726 mmHg 23%
01:00 +30°C° 0 mm 2 mps 726 mmHg 24%
02:00 +30°C° 0 mm 2 mps 726 mmHg 24%
03:00 +29°C° 0 mm 2 mps 726 mmHg 28%
04:00 +28°C° 0 mm 1 mps 726 mmHg 32%
05:00 +27°C° 0 mm 1 mps 726 mmHg 35%
06:00 +30°C° 0 mm 1 mps 727 mmHg 31%
07:00 +32°C° 0 mm 2 mps 727 mmHg 27%
08:00 +36°C° 0 mm 2 mps 728 mmHg 23%
09:00 +37°C° 0 mm 2 mps 728 mmHg 21%
10:00 +39°C° 0 mm 3 mps 728 mmHg 19%
11:00 +42°C° 0 mm 3 mps 728 mmHg 16%
12:00 +42°C° 0 mm 4 mps 727 mmHg 16%
13:00 +43°C° 0 mm 5 mps 727 mmHg 16%
14:00 +45°C° 0 mm 6 mps 726 mmHg 15%
15:00 +43°C° 0 mm 5 mps 726 mmHg 16%
16:00 +42°C° 0 mm 4 mps 726 mmHg 17%
17:00 +41°C° 0 mm 4 mps 726 mmHg 17%
18:00 +38°C° 0 mm 3 mps 726 mmHg 19%
19:00 +36°C° 0 mm 2 mps 726 mmHg 21%
20:00 +34°C° 0 mm 2 mps 727 mmHg 23%
21:00 +32°C° 0 mm 2 mps 727 mmHg 24%
22:00 +32°C° 0 mm 2 mps 727 mmHg 24%
23:00 +31°C° 0 mm 2 mps 727 mmHg 24%

18 August, Tuesday

Time Temperature Precipitation Wind Pressure Humidity
00:00 +30°C° 0 mm 2 mps 726 mmHg 29%
01:00 +29°C° 0 mm 3 mps 726 mmHg 33%
02:00 +28°C° 0 mm 3 mps 726 mmHg 38%
03:00 +28°C° 0 mm 3 mps 726 mmHg 36%
04:00 +28°C° 0 mm 2 mps 726 mmHg 34%
05:00 +28°C° 0 mm 2 mps 726 mmHg 32%
06:00 +30°C° 0 mm 2 mps 727 mmHg 28%
07:00 +34°C° 0 mm 3 mps 727 mmHg 24%
08:00 +37°C° 0 mm 3 mps 728 mmHg 20%
09:00 +38°C° 0 mm 4 mps 728 mmHg 17%
10:00 +41°C° 0 mm 4 mps 728 mmHg 15%
11:00 +42°C° 0 mm 5 mps 728 mmHg 13%
12:00 +43°C° 0 mm 5 mps 727 mmHg 12%
13:00 +43°C° 0 mm 5 mps 727 mmHg 11%
14:00 +45°C° 0 mm 6 mps 726 mmHg 11%
15:00 +44°C° 0 mm 6 mps 726 mmHg 11%
16:00 +42°C° 0 mm 6 mps 726 mmHg 12%
17:00 +41°C° 0 mm 6 mps 726 mmHg 12%
18:00 +39°C° 0 mm 5 mps 726 mmHg 16%
19:00 +35°C° 0 mm 4 mps 726 mmHg 19%
20:00 +33°C° 0 mm 3 mps 726 mmHg 23%
21:00 +31°C° 0 mm 3 mps 726 mmHg 24%
22:00 +31°C° 0 mm 3 mps 726 mmHg 24%
23:00 +31°C° 0 mm 2 mps 726 mmHg 25%
Show more